Regional Weather Roundup
Issued by NWS Northern Indiana

Home | Current Version | Previous Version | Graphics & Text | Print | Product List | Glossary On
Versions: 1 2 3 4 5 6 7 8 9 10 11 12 13 14 15 16 17 18 19 20 21 22 23 24 25 26 27 28 29 30 31 32 33 34 35 36 37 38 39 40 41 42 43 44 45 46 47 48 49 50
000
ASUS43 KIWX 222110
RWRIWX

KIWX WEATHER ROUNDUP
NATIONAL WEATHER SERVICE NORTHERN INDIANA
500 PM EDT FRI AUG 22 2014

NOTE: "FAIR" INDICATES FEW OR NO CLOUDS BELOW 12,000 FEET WITH NO
SIGNIFICANT WEATHER AND/OR OBSTRUCTIONS TO VISIBILITY.

* THESE STATIONS ARE NOT UNDER NWS QUALITY CONTROL. THEY ALSO MAY NOT
  REPORT WEATHER SUCH AS PRECIPITATION OR FOG.

INZ001>027-222200-
NORTHERN INDIANA

CITY           SKY/WX    TMP DP  RH WIND       PRES   REMARKS
GARY*          PTSUNNY   86  68  54 W6        29.93S
VALPARAISO     PTSUNNY   84  71  65 W5        29.94F
MICHIGAN CITY* MOSUNNY   82  73  74 CALM      29.94F
LAPORTE*       PTSUNNY   82  73  72 CALM      29.95S
KNOX*          PTSUNNY   82  72  72 CALM      29.94S
SOUTH BEND     PTSUNNY   83  72  69 W3        29.95F
ELKHART*       PTSUNNY   84  72  65 CALM      29.95
GOSHEN         PTSUNNY   86  73  65 W5        29.95S
MONTICELLO*    CLOUDY    82  74  77 CALM      29.95F
LOGANSPORT*    CLOUDY    81  72  74 W5        29.97S
ROCHESTER*     CLOUDY    84  73  70 NW3       29.97R
WARSAW*        CLOUDY    81  72  74 CALM      29.95F
ANGOLA*        MOSUNNY   84  73  70 VRB5      29.96S
FORT WAYNE     PTSUNNY   82  73  74 NW5       29.97S
HUNTINGTON*    CLOUDY    80  73  80 CALM      29.96S
PERU/GRISSOM   CLOUDY    80  78  94 W8        29.97S
MARION*        PTSUNNY   81  72  72 W5        29.98S

$$
INZ028>050-222200-
CENTRAL INDIANA

CITY           SKY/WX    TMP DP  RH WIND       PRES   REMARKS
LAFAYETTE      PTSUNNY   82  73  74 VRB3      29.95F
KOKOMO*        CLOUDY    81  72  74 W10       29.97R
MUNCIE*        MOSUNNY   83  72  69 W10       29.97F
INDIANAPOLIS   PTSUNNY   85  69  58 CALM      29.97F

$$
MIZ043>046-050>051-056>058-064>065-071>073-077>080-222200-
SOUTHWEST LOWER MICHIGAN

CITY           SKY/WX    TMP DP  RH WIND       PRES   REMARKS
BATTLE CREEK   CLOUDY    80  71  74 N5        29.98F
BENTON HARBOR  MOSUNNY   82  72  71 N3        29.93F
COLDWATER*     PTSUNNY   82  73  73 NE6       29.97S
HILLSDALE*     PTSUNNY   81  74  79 N5        29.98F
HOLLAND        CLOUDY    81  73  76 E5        29.96S
GRAND RAPIDS   PTSUNNY   80  75  84 S6        29.97S
KALAMAZOO      MOSUNNY   82  72  71 NE5       29.96S
STURGIS*       PTSUNNY   82  73  74 N3        29.96R
THREE RIVERS*  PTSUNNY   83  73  70 NE5       29.96R

$$
OHZ001>008-015>018-024>025-222200-
NORTHWEST OHIO

CITY           SKY/WX    TMP DP  RH WIND       PRES   REMARKS
WAUSEON*       FAIR      82  73  74 NE7       29.96F
DEFIANCE       PTSUNNY   84  71  65 E5        29.95F
FINDLAY        LGT RAIN  78  74  87 SW6       29.95S
TOLEDO EXPRESS LGT RAIN  79  73  82 NE6       29.96R
TOLEDO METCALF CLOUDY    79  71  76 E5        29.97R
LIMA           CLOUDY    82  73  74 W9        29.96F

$$
&&


USA.gov is the U.S. government's official web portal to all federal, state and local government web resources and services.